Tracking 33195 objects as of 8-Feb-2026
HD Live streaming from Space Station
objects crossing your sky now

KUIPER-00241

Track KUIPER-00241 now!
10-day predictions
KUIPER-00241 is classified as:


NORAD ID: 67149
Int'l Code: 2025-301S
Perigee: 515.5 km
Apogee: 517.9 km
Inclination: 51.9 °
Period: 94.8 minutes
Semi major axis: 6887 km
RCS: Unknown
Launch date: December 15, 2025
Source: United States (US)
Launch site: AIR FORCE EASTERN TEST RANGE (AFETR)
Your satellite tracking list
Your tracking list is empty




NASA's NSSDC Master Catalog

Two Line Element Set (TLE):
1 67149U 25301S   26038.91667824 -.00917009  00000-0 -46976-1 0  9991
2 67149  51.8838 209.8387 0001715 293.8430 249.5440 15.18778732  5925
Source of the keplerian elements: AFSPC